,,,PA_Meas_PMT16A,,PR_Meas_QMR101_102,,RH_Meas_QMH101,,SR_Meas_QMS101,,TA_Meas_QMH101,,GenWind,,GenWind,
date,time,status,PA,status,PR,status,RH,status,SR,status,TA,status,DirAvg,status,SpdAvg,
2008-10-23, 00:00:05,VALID,1009,VALID,0,VALID,95.4287,VALID,0.105969,VALID,23.9047,VALID,100,VALID,0.582812,
2008-10-23, 00:01:05,VALID,1008.96,VALID,0,VALID,95.4439,VALID,0.105969,VALID,23.8871,VALID,105,VALID,0.269141,
2008-10-23, 00:02:05,VALID,1008.94,VALID,0,VALID,95.4287,VALID,0.105969,VALID,23.9065,VALID,105,VALID,0.179297,
2008-10-23, 00:03:05,VALID,1008.92,VALID,0,VALID,95.4211,VALID,0.105969,VALID,23.8658,VALID,108,VALID,0.439063,
2008-10-23, 00:04:05,VALID,1008.93,VALID,0,VALID,95.4287,VALID,0.105969,VALID,23.8871,VALID,166,VALID,0.458203,
2008-10-23, 00:05:05,VALID,1008.93,VALID,0,VALID,95.4134,VALID,0.105969,VALID,23.8463,VALID,166,VALID,0.372266,
2008-10-23, 00:06:05,VALID,1008.92,VALID,0,VALID,95.4134,VALID,0.105969,VALID,23.8268,VALID,166,VALID,0.484375,
2008-10-23, 00:07:05,VALID,1008.88,VALID,0,VALID,95.4211,VALID,0.105969,VALID,23.8268,VALID,166,VALID,0.475,
2008-10-23, 00:08:05,VALID,1008.86,VALID,0,VALID,95.4363,VALID,0,VALID,23.8499,VALID,164,VALID,0.55,
2008-10-23, 00:09:05,VALID,1008.85,VALID,0,VALID,95.4287,VALID,0,VALID,23.8304,VALID,159,VALID,0.384766,
2008-10-23, 00:10:05,VALID,1008.81,VALID,0,VALID,95.4211,VALID,0,VALID,23.8694,VALID,159,VALID,0.00546875,
2008-10-23, 00:11:05,VALID,1008.81,VALID,0,VALID,95.4287,VALID,0,VALID,23.8499,VALID,159,VALID,0.00078125,
2008-10-23, 00:12:05,VALID,1008.79,VALID,0,VALID,95.4211,VALID,0,VALID,23.8304,VALID,159,VALID,0.129297,
2008-10-23, 00:13:05,VALID,1008.79,VALID,0,VALID,95.4287,VALID,0,VALID,23.8286,VALID,159,VALID,0.0691406,
2008-10-23, 00:14:05,VALID,1008.78,VALID,0,VALID,95.4363,VALID,0,VALID,23.8286,VALID,158,VALID,0.166406,
2008-10-23, 00:15:05,VALID,1008.76,VALID,0,VALID,95.4363,VALID,0,VALID,23.8304,VALID,130,VALID,0.210156,
2008-10-23, 00:16:05,VALID,1008.76,VALID,0,VALID,95.4211,VALID,0,VALID,23.8109,VALID,130,VALID,0.00351562,
2008-10-23, 00:17:05,VALID,1008.76,VALID,0,VALID,95.4363,VALID,0,VALID,23.7896,VALID,130,VALID,0.100781,
2008-10-23, 00:18:05,VALID,1008.77,VALID,0,VALID,95.4439,VALID,0,VALID,23.7701,VALID,130,VALID,0.175,
2008-10-23, 00:19:05,VALID,1008.77,VALID,0,VALID,95.4287,VALID,0,VALID,23.8109,VALID,130,VALID,0.189063,
2008-10-23, 00:20:05,VALID,1008.74,VALID,0,VALID,95.4211,VALID,0,VALID,23.7914,VALID,130,VALID,0.216406,
2008-10-23, 00:21:05,VALID,1008.74,VALID,0,VALID,95.4287,VALID,0,VALID,23.7701,VALID,130,VALID,0.146094,
2008-10-23, 00:22:05,VALID,1008.74,VALID,0,VALID,95.4211,VALID,0,VALID,23.772,VALID,130,VALID,0.0664063,
2008-10-23, 00:23:05,VALID,1008.73,VALID,0,VALID,95.4058,VALID,0.105969,VALID,23.7701,VALID,130,VALID,0,
2008-10-23, 00:24:05,VALID,1008.71,VALID,0,VALID,95.4211,VALID,0.105969,VALID,23.7896,VALID,130,VALID,0,
2008-10-23, 00:25:05,VALID,1008.7,VALID,0,VALID,95.4287,VALID,0.105969,VALID,23.8286,VALID,130,VALID,0,
2008-10-23, 00:26:04,VALID,1008.71,VALID,0,VALID,95.4287,VALID,0.105969,VALID,23.8286,VALID,130,VALID,0,
2008-10-23, 00:27:04,VALID,1008.74,VALID,0,VALID,95.4211,VALID,0.105969,VALID,23.8091,VALID,78,VALID,0.396484,
2008-10-23, 00:28:04,VALID,1008.76,VALID,0,VALID,95.3905,VALID,0.105969,VALID,23.7896,VALID,55,VALID,0.446094,
2008-10-23, 00:29:04,VALID,1008.77,VALID,0,VALID,95.4134,VALID,0.105969,VALID,23.7896,VALID,82,VALID,0.657031,
2008-10-23, 00:30:04,VALID,1008.77,VALID,0,VALID,95.4134,VALID,0.105969,VALID,23.7878,VALID,90,VALID,0.694141,
2008-10-23, 00:31:04,VALID,1008.77,VALID,0,VALID,95.4211,VALID,0.105969,VALID,23.7896,VALID,95,VALID,0.765625,
2008-10-23, 00:32:04,VALID,1008.78,VALID,0,VALID,95.4211,VALID,0.105969,VALID,23.8091,VALID,107,VALID,0.613281,
2008-10-23, 00:33:04,VALID,1008.8,VALID,0,VALID,95.4058,VALID,0.105969,VALID,23.8091,VALID,107,VALID,0.616797,
2008-10-23, 00:34:04,VALID,1008.8,VALID,0,VALID,95.4058,VALID,0.105969,VALID,23.8091,VALID,105,VALID,0.725781,
2008-10-23, 00:35:04,VALID,1008.77,VALID,0,VALID,95.4211,VALID,0.105969,VALID,23.8481,VALID,108,VALID,0.528125,
2008-10-23, 00:36:04,VALID,1008.78,VALID,0,VALID,95.4058,VALID,0.105969,VALID,23.8091,VALID,116,VALID,0.51875,
2008-10-23, 00:37:04,VALID,1008.76,VALID,0,VALID,95.4134,VALID,0.105969,VALID,23.8481,VALID,117,VALID,0.526563,
2008-10-23, 00:38:04,VALID,1008.77,VALID,0,VALID,95.3905,VALID,0,VALID,23.8304,VALID,139,VALID,0.527344,
2008-10-23, 00:39:04,VALID,1008.77,VALID,0,VALID,95.4058,VALID,0,VALID,23.772,VALID,160,VALID,0.655078,
2008-10-23, 00:40:04,VALID,1008.8,VALID,0,VALID,95.3829,VALID,0,VALID,23.7701,VALID,155,VALID,0.491406,
2008-10-23, 00:41:04,VALID,1008.82,VALID,0,VALID,95.3753,VALID,0,VALID,23.772,VALID,127,VALID,0.670703,
2008-10-23, 00:42:04,VALID,1008.85,VALID,0,VALID,95.3753,VALID,0,VALID,23.7914,VALID,123,VALID,0.90625,
2008-10-23, 00:43:04,VALID,1008.85,VALID,0,VALID,95.3905,VALID,0,VALID,23.772,VALID,128,VALID,1.04453,
2008-10-23, 00:44:04,VALID,1008.88,VALID,0,VALID,95.3905,VALID,0,VALID,23.772,VALID,136,VALID,0.987891,
2008-10-23, 00:45:04,VALID,1008.9,VALID,0,VALID,95.3905,VALID,0,VALID,23.7914,VALID,121,VALID,0.751953,
2008-10-23, 00:46:04,VALID,1008.9,VALID,0,VALID,95.4058,VALID,0,VALID,23.8109,VALID,123,VALID,0.725391,
2008-10-23, 00:47:04,VALID,1008.93,VALID,0,VALID,95.3905,VALID,0,VALID,23.8109,VALID,116,VALID,0.734766,
2008-10-23, 00:48:04,VALID,1008.94,VALID,0,VALID,95.3982,VALID,0,VALID,23.8109,VALID,103,VALID,0.995703,
2008-10-23, 00:49:04,VALID,1008.95,VALID,0,VALID,95.3829,VALID,0,VALID,23.8109,VALID,119,VALID,1.03594,
2008-10-23, 00:50:04,VALID,1008.95,VALID,0,VALID,95.3829,VALID,0,VALID,23.8304,VALID,119,VALID,1.2625,
2008-10-23, 00:51:04,VALID,1008.94,VALID,0,VALID,95.3753,VALID,0,VALID,23.8109,VALID,114,VALID,1.06172,
2008-10-23, 00:52:04,VALID,1008.95,VALID,0,VALID,95.3677,VALID,0,VALID,23.8304,VALID,97,VALID,0.936719,
2008-10-23, 00:53:04,VALID,1008.9,VALID,0,VALID,95.3677,VALID,0,VALID,23.7914,VALID,108,VALID,1.14414,
2008-10-23, 00:54:04,VALID,1008.92,VALID,0,VALID,95.36,VALID,0,VALID,23.7701,VALID,109,VALID,0.932422,
2008-10-23, 00:55:04,VALID,1008.92,VALID,0,VALID,95.36,VALID,0,VALID,23.7914,VALID,103,VALID,0.962891,
2008-10-23, 00:56:04,VALID,1008.89,VALID,0,VALID,95.3677,VALID,0,VALID,23.7914,VALID,127,VALID,0.871875,
2008-10-23, 00:57:04,VALID,1008.9,VALID,0,VALID,95.3524,VALID,0,VALID,23.7914,VALID,93,VALID,0.852344,
2008-10-23, 00:58:04,VALID,1008.87,VALID,0,VALID,95.3524,VALID,0.105969,VALID,23.7701,VALID,101,VALID,0.685547,
2008-10-23, 00:59:04,VALID,1008.85,VALID,0,VALID,95.3372,VALID,0,VALID,23.772,VALID,104,VALID,0.980078,
2008-10-23, 01:00:04,VALID,1008.86,VALID,0,VALID,95.3295,VALID,0,VALID,23.772,VALID,116,VALID,1.06797,
2008-10-23, 01:01:04,VALID,1008.86,VALID,0,VALID,95.3524,VALID,0,VALID,23.8109,VALID,107,VALID,0.778125,
2008-10-23, 01:02:04,VALID,1008.85,VALID,0,VALID,95.3372,VALID,0,VALID,23.7525,VALID,105,VALID,0.917969,
2008-10-23, 01:03:04,VALID,1008.88,VALID,0,VALID,95.3295,VALID,0,VALID,23.772,VALID,105,VALID,0.723828,
2008-10-23, 01:04:04,VALID,1008.86,VALID,0,VALID,95.3143,VALID,0,VALID,23.733,VALID,116,VALID,1.24023,
2008-10-23, 01:05:04,VALID,1008.9,VALID,0,VALID,95.3067,VALID,0,VALID,23.7312,VALID,101,VALID,0.84375,
2008-10-23, 01:06:04,VALID,1008.9,VALID,0,VALID,95.3143,VALID,0,VALID,23.772,VALID,111,VALID,1.02656,
2008-10-23, 01:07:04,VALID,1008.87,VALID,0,VALID,95.3295,VALID,0,VALID,23.7507,VALID,110,VALID,0.935547,
2008-10-23, 01:08:04,VALID,1008.87,VALID,0,VALID,95.299,VALID,0,VALID,23.7525,VALID,101,VALID,1.06523,
2008-10-23, 01:09:04,VALID,1008.88,VALID,0,VALID,95.3143,VALID,0,VALID,23.7914,VALID,108,VALID,0.889844,
2008-10-23, 01:10:04,VALID,1008.85,VALID,0,VALID,95.2914,VALID,0,VALID,23.733,VALID,123,VALID,1.46016,
2008-10-23, 01:11:04,VALID,1008.88,VALID,0,VALID,95.299,VALID,0,VALID,23.733,VALID,111,VALID,1.44375,
2008-10-23, 01:12:04,VALID,1008.86,VALID,0,VALID,95.2838,VALID,0,VALID,23.772,VALID,126,VALID,1.61563,
2008-10-23, 01:13:04,VALID,1008.87,VALID,0,VALID,95.2914,VALID,0,VALID,23.7525,VALID,94,VALID,1.13789,
2008-10-23, 01:14:04,VALID,1008.85,VALID,0,VALID,95.2838,VALID,0,VALID,23.7525,VALID,113,VALID,0.851563,
2008-10-23, 01:15:04,VALID,1008.86,VALID,0,VALID,95.2838,VALID,0,VALID,23.7525,VALID,94,VALID,1.18906,
2008-10-23, 01:16:04,VALID,1008.82,VALID,0,VALID,95.2685,VALID,0,VALID,23.733,VALID,84,VALID,0.754297,
2008-10-23, 01:17:04,VALID,1008.83,VALID,0,VALID,95.2914,VALID,0,VALID,23.772,VALID,81,VALID,0.855469,
2008-10-23, 01:18:04,VALID,1008.81,VALID,0,VALID,95.2762,VALID,0,VALID,23.7507,VALID,82,VALID,0.903516,
2008-10-23, 01:19:04,VALID,1008.8,VALID,0,VALID,95.2838,VALID,0,VALID,23.772,VALID,93,VALID,0.672656,
2008-10-23, 01:20:04,VALID,1008.81,VALID,0,VALID,95.2685,VALID,0,VALID,23.7312,VALID,73,VALID,0.70625,
2008-10-23, 01:21:04,VALID,1008.8,VALID,0,VALID,95.2609,VALID,0,VALID,23.7525,VALID,94,VALID,0.84375,
2008-10-23, 01:22:04,VALID,1008.79,VALID,0,VALID,95.2685,VALID,0,VALID,23.772,VALID,88,VALID,0.739844,
2008-10-23, 01:23:04,VALID,1008.79,VALID,0,VALID,95.2685,VALID,0,VALID,23.7525,VALID,100,VALID,0.698438,
2008-10-23, 01:24:04,VALID,1008.78,VALID,0,VALID,95.2838,VALID,0,VALID,23.772,VALID,111,VALID,1.10156,
2008-10-23, 01:25:04,VALID,1008.78,VALID,0,VALID,95.2762,VALID,0,VALID,23.7525,VALID,133,VALID,0.751562,
2008-10-23, 01:26:04,VALID,1008.76,VALID,0,VALID,95.2685,VALID,0,VALID,23.7525,VALID,137,VALID,0.767578,
2008-10-23, 01:27:04,VALID,1008.77,VALID,0,VALID,95.2685,VALID,0,VALID,23.7525,VALID,122,VALID,1.19844,
2008-10-23, 01:28:04,VALID,1008.74,VALID,0,VALID,95.2685,VALID,0,VALID,23.7117,VALID,112,VALID,0.774219,
2008-10-23, 01:29:04,VALID,1008.72,VALID,0,VALID,95.2457,VALID,0,VALID,23.7135,VALID,101,VALID,1.26875,
2008-10-23, 01:30:04,VALID,1008.7,VALID,0,VALID,95.2609,VALID,0,VALID,23.733,VALID,107,VALID,1.04961,
2008-10-23, 01:31:04,VALID,1008.71,VALID,0,VALID,95.2457,VALID,0,VALID,23.6727,VALID,97,VALID,0.763281,
2008-10-23, 01:32:04,VALID,1008.7,VALID,0,VALID,95.2457,VALID,0,VALID,23.7525,VALID,92,VALID,0.709766,
2008-10-23, 01:33:04,VALID,1008.7,VALID,0,VALID,95.2457,VALID,0,VALID,23.694,VALID,104,VALID,0.866016,
2008-10-23, 01:34:04,VALID,1008.73,VALID,0,VALID,95.2533,VALID,0,VALID,23.733,VALID,76,VALID,0.782812,
2008-10-23, 01:35:04,VALID,1008.74,VALID,0,VALID,95.2457,VALID,0,VALID,23.7135,VALID,85,VALID,0.949219,
2008-10-23, 01:36:04,VALID,1008.77,VALID,0,VALID,95.238,VALID,0,VALID,23.7135,VALID,106,VALID,1.2918,
2008-10-23, 01:37:04,VALID,1008.76,VALID,0,VALID,95.2228,VALID,0,VALID,23.7135,VALID,100,VALID,0.840625,
2008-10-23, 01:38:04,VALID,1008.77,VALID,0,VALID,95.2152,VALID,0,VALID,23.7135,VALID,93,VALID,1.16016,
2008-10-23, 01:39:04,VALID,1008.76,VALID,0,VALID,95.2304,VALID,0,VALID,23.7135,VALID,92,VALID,1.00195,
2008-10-23, 01:40:04,VALID,1008.74,VALID,0,VALID,95.2228,VALID,0,VALID,23.733,VALID,89,VALID,0.719141,
2008-10-23, 01:41:04,VALID,1008.77,VALID,0,VALID,95.2228,VALID,0,VALID,23.6745,VALID,92,VALID,1.1293,
2008-10-23, 01:42:04,VALID,1008.74,VALID,0,VALID,95.1999,VALID,0,VALID,23.655,VALID,87,VALID,1.02578,
2008-10-23, 01:43:04,VALID,1008.74,VALID,0,VALID,95.2152,VALID,0,VALID,23.6745,VALID,107,VALID,1.19883,
2008-10-23, 01:44:04,VALID,1008.73,VALID,0,VALID,95.2152,VALID,0,VALID,23.6745,VALID,97,VALID,0.707812,
2008-10-23, 01:45:04,VALID,1008.71,VALID,0,VALID,95.2075,VALID,0,VALID,23.6745,VALID,84,VALID,0.960547,
2008-10-23, 01:46:04,VALID,1008.71,VALID,0,VALID,95.1923,VALID,0,VALID,23.655,VALID,118,VALID,0.578125,
2008-10-23, 01:47:04,VALID,1008.7,VALID,0,VALID,95.2228,VALID,0,VALID,23.7135,VALID,97,VALID,0.555859,
2008-10-23, 01:48:04,VALID,1008.66,VALID,0,VALID,95.1847,VALID,0,VALID,23.655,VALID,100,VALID,0.541797,
2008-10-23, 01:49:04,VALID,1008.6,VALID,0,VALID,95.2228,VALID,0,VALID,23.655,VALID,102,VALID,0.772266,
2008-10-23, 01:50:04,VALID,1008.62,VALID,0,VALID,95.2075,VALID,0,VALID,23.7135,VALID,102,VALID,0.655859,
2008-10-23, 01:51:04,VALID,1008.59,VALID,0,VALID,95.1923,VALID,0,VALID,23.655,VALID,85,VALID,0.585156,
2008-10-23, 01:52:04,VALID,1008.58,VALID,0,VALID,95.177,VALID,0,VALID,23.6745,VALID,56,VALID,0.802344,
2008-10-23, 01:53:04,VALID,1008.55,VALID,0,VALID,95.1999,VALID,0,VALID,23.655,VALID,52,VALID,0.704687,
2008-10-23, 01:54:04,VALID,1008.53,VALID,0,VALID,95.177,VALID,0,VALID,23.655,VALID,51,VALID,0.442969,
2008-10-23, 01:55:04,VALID,1008.54,VALID,0,VALID,95.177,VALID,0,VALID,23.6356,VALID,57,VALID,0.711328,
2008-10-23, 01:56:04,VALID,1008.51,VALID,0,VALID,95.1847,VALID,0,VALID,23.6356,VALID,65,VALID,0.585547,
2008-10-23, 01:57:04,VALID,1008.5,VALID,0,VALID,95.1847,VALID,0,VALID,23.6161,VALID,79,VALID,0.828516,
2008-10-23, 01:58:04,VALID,1008.5,VALID,0,VALID,95.1847,VALID,0,VALID,23.6161,VALID,75,VALID,0.556641,
2008-10-23, 01:59:04,VALID,1008.49,VALID,0,VALID,95.1847,VALID,0,VALID,23.6356,VALID,98,VALID,1.24336,
2008-10-23, 02:00:04,VALID,1008.5,VALID,0,VALID,95.1694,VALID,0,VALID,23.6161,VALID,87,VALID,1.1957,
2008-10-23, 02:01:04,VALID,1008.52,VALID,0,VALID,95.1694,VALID,0,VALID,23.6161,VALID,75,VALID,1.14375,
2008-10-23, 02:02:04,VALID,1008.49,VALID,0,VALID,95.1847,VALID,0,VALID,23.6161,VALID,93,VALID,0.990234,
2008-10-23, 02:03:04,VALID,1008.45,VALID,0,VALID,95.1847,VALID,0,VALID,23.6161,VALID,83,VALID,1.11328,
2008-10-23, 02:04:04,VALID,1008.44,VALID,0,VALID,95.1847,VALID,0,VALID,23.6356,VALID,82,VALID,0.905469,
2008-10-23, 02:05:04,VALID,1008.41,VALID,0,VALID,95.1999,VALID,0,VALID,23.5966,VALID,99,VALID,1.7082,
2008-10-23, 02:06:04,VALID,1008.42,VALID,0,VALID,95.1923,VALID,0,VALID,23.6143,VALID,88,VALID,1.55117,
2008-10-23, 02:07:04,VALID,1008.4,VALID,0,VALID,95.1923,VALID,0,VALID,23.5771,VALID,103,VALID,1.7043,
2008-10-23, 02:08:04,VALID,1008.42,VALID,0,VALID,95.1999,VALID,0,VALID,23.6161,VALID,96,VALID,1.05586,
2008-10-23, 02:09:04,VALID,1008.36,VALID,0,VALID,95.2075,VALID,0,VALID,23.5966,VALID,114,VALID,1.05664,
2008-10-23, 02:10:04,VALID,1008.37,VALID,0,VALID,95.2228,VALID,0,VALID,23.6161,VALID,96,VALID,1.09922,
2008-10-23, 02:11:04,VALID,1008.37,VALID,0,VALID,95.1999,VALID,0,VALID,23.6161,VALID,91,VALID,0.915625,
2008-10-23, 02:12:04,VALID,1008.33,VALID,0,VALID,95.1923,VALID,0,VALID,23.6161,VALID,81,VALID,0.498047,
2008-10-23, 02:13:04,VALID,1008.34,VALID,0.5,VALID,95.2228,VALID,0,VALID,23.6568,VALID,79,VALID,0.603906,
2008-10-23, 02:14:04,VALID,1008.35,VALID,0,VALID,95.2075,VALID,0,VALID,23.5966,VALID,76,VALID,1.08594,
2008-10-23, 02:15:04,VALID,1008.33,VALID,0,VALID,95.2075,VALID,0,VALID,23.5966,VALID,70,VALID,0.522266,
2008-10-23, 02:16:04,VALID,1008.36,VALID,0,VALID,95.1999,VALID,0,VALID,23.6568,VALID,68,VALID,0.639453,
2008-10-23, 02:17:04,VALID,1008.36,VALID,0,VALID,95.1999,VALID,0,VALID,23.6356,VALID,70,VALID,0.790234,
2008-10-23, 02:18:04,VALID,1008.35,VALID,0,VALID,95.238,VALID,0,VALID,23.6161,VALID,77,VALID,0.844141,
2008-10-23, 02:19:04,VALID,1008.35,VALID,0,VALID,95.2228,VALID,0,VALID,23.5966,VALID,56,VALID,0.553125,
2008-10-23, 02:20:04,VALID,1008.35,VALID,0,VALID,95.238,VALID,0,VALID,23.6745,VALID,109,VALID,0.395312,
2008-10-23, 02:21:04,VALID,1008.34,VALID,0,VALID,95.238,VALID,0,VALID,23.6763,VALID,87,VALID,0.817187,
2008-10-23, 02:22:04,VALID,1008.32,VALID,0,VALID,95.238,VALID,0,VALID,23.6356,VALID,83,VALID,0.642187,
2008-10-23, 02:23:04,VALID,1008.32,VALID,0,VALID,95.238,VALID,0,VALID,23.6338,VALID,86,VALID,0.628125,
2008-10-23, 02:24:04,VALID,1008.3,VALID,0,VALID,95.2304,VALID,0.105969,VALID,23.6338,VALID,83,VALID,0.883594,
2008-10-23, 02:25:04,VALID,1008.31,VALID,0,VALID,95.2304,VALID,0.105969,VALID,23.6532,VALID,67,VALID,0.302344,
2008-10-23, 02:26:04,VALID,1008.31,VALID,0,VALID,95.2152,VALID,0.105969,VALID,23.6532,VALID,111,VALID,0.912891,
2008-10-23, 02:27:04,VALID,1008.28,VALID,0,VALID,95.238,VALID,0.105969,VALID,23.6532,VALID,107,VALID,0.903906,
2008-10-23, 02:28:04,VALID,1008.3,VALID,0,VALID,95.2304,VALID,0,VALID,23.6532,VALID,104,VALID,0.547266,
2008-10-23, 02:29:04,VALID,1008.3,VALID,0,VALID,95.2304,VALID,0,VALID,23.6727,VALID,90,VALID,0.759766,
2008-10-23, 02:30:04,VALID,1008.28,VALID,0,VALID,95.2304,VALID,0.105969,VALID,23.6727,VALID,115,VALID,0.959766,
2008-10-23, 02:31:04,VALID,1008.32,VALID,0,VALID,95.1999,VALID,0,VALID,23.6745,VALID,92,VALID,0.885156,
2008-10-23, 02:32:04,VALID,1008.33,VALID,0,VALID,95.2228,VALID,0.105969,VALID,23.6727,VALID,107,VALID,0.738281,
2008-10-23, 02:33:04,VALID,1008.33,VALID,0,VALID,95.1999,VALID,0.105969,VALID,23.6727,VALID,103,VALID,0.626953,
2008-10-23, 02:34:04,VALID,1008.35,VALID,0,VALID,95.2075,VALID,0.105969,VALID,23.6727,VALID,99,VALID,0.834766,
2008-10-23, 02:35:04,VALID,1008.34,VALID,0,VALID,95.2075,VALID,0.105969,VALID,23.6922,VALID,105,VALID,0.805469,
2008-10-23, 02:36:04,VALID,1008.39,VALID,0,VALID,95.1847,VALID,0.105969,VALID,23.7117,VALID,95,VALID,0.848047,
2008-10-23, 02:37:04,VALID,1008.38,VALID,0,VALID,95.1847,VALID,0.105969,VALID,23.6922,VALID,87,VALID,1.18281,
2008-10-23, 02:38:04,VALID,1008.38,VALID,0,VALID,95.1542,VALID,0,VALID,23.694,VALID,113,VALID,0.857813,
2008-10-23, 02:39:04,VALID,1008.38,VALID,0,VALID,95.1923,VALID,0,VALID,23.7117,VALID,74,VALID,0.750781,
2008-10-23, 02:40:04,VALID,1008.38,VALID,0,VALID,95.1694,VALID,0,VALID,23.733,VALID,90,VALID,0.436719,
2008-10-23, 02:41:04,VALID,1008.38,VALID,0,VALID,95.1618,VALID,0,VALID,23.6727,VALID,114,VALID,1.03125,
2008-10-23, 02:42:04,VALID,1008.39,VALID,0,VALID,95.1847,VALID,0,VALID,23.7135,VALID,119,VALID,0.833984,
2008-10-23, 02:43:04,VALID,1008.37,VALID,0,VALID,95.1618,VALID,0,VALID,23.6745,VALID,101,VALID,1.22695,
2008-10-23, 02:44:04,VALID,1008.36,VALID,0,VALID,95.1313,VALID,0,VALID,23.655,VALID,97,VALID,1.40117,
2008-10-23, 02:45:04,VALID,1008.36,VALID,0,VALID,95.1542,VALID,0,VALID,23.694,VALID,115,VALID,0.767578,
2008-10-23, 02:46:04,VALID,1008.36,VALID,0,VALID,95.1389,VALID,0,VALID,23.6745,VALID,106,VALID,1.00039,
2008-10-23, 02:47:04,VALID,1008.36,VALID,0,VALID,95.1465,VALID,0,VALID,23.6745,VALID,71,VALID,0.892578,
2008-10-23, 02:48:04,VALID,1008.37,VALID,0,VALID,95.1313,VALID,0,VALID,23.655,VALID,96,VALID,0.668359,
2008-10-23, 02:49:04,VALID,1008.37,VALID,0,VALID,95.1313,VALID,0,VALID,23.655,VALID,111,VALID,0.939062,
2008-10-23, 02:50:04,VALID,1008.35,VALID,0,VALID,95.1313,VALID,0,VALID,23.655,VALID,108,VALID,0.704297,
2008-10-23, 02:51:04,VALID,1008.37,VALID,0,VALID,95.1313,VALID,0,VALID,23.655,VALID,130,VALID,0.832031,
2008-10-23, 02:52:04,VALID,1008.34,VALID,0,VALID,95.1542,VALID,0,VALID,23.6745,VALID,79,VALID,0.338672,
2008-10-23, 02:53:04,VALID,1008.36,VALID,0,VALID,95.116,VALID,0,VALID,23.6356,VALID,60,VALID,0.528516,
2008-10-23, 02:54:04,VALID,1008.31,VALID,0,VALID,95.1236,VALID,0,VALID,23.6356,VALID,61,VALID,0.608984,
2008-10-23, 02:55:04,VALID,1008.35,VALID,0,VALID,95.1313,VALID,0,VALID,23.6143,VALID,79,VALID,0.500781,
2008-10-23, 02:56:04,VALID,1008.34,VALID,0,VALID,95.1389,VALID,0,VALID,23.6356,VALID,88,VALID,0.666406,
2008-10-23, 02:57:04,VALID,1008.34,VALID,0,VALID,95.1389,VALID,0,VALID,23.6161,VALID,82,VALID,0.808594,
2008-10-23, 02:58:04,VALID,1008.3,VALID,0,VALID,95.1313,VALID,0,VALID,23.6356,VALID,81,VALID,0.871484,
2008-10-23, 02:59:04,VALID,1008.33,VALID,0,VALID,95.1465,VALID,0,VALID,23.6356,VALID,94,VALID,0.671875,
2008-10-23, 03:00:04,VALID,1008.34,VALID,0,VALID,95.1313,VALID,0,VALID,23.655,VALID,91,VALID,0.638672,
2008-10-23, 03:01:04,VALID,1008.35,VALID,0,VALID,95.1465,VALID,0,VALID,23.655,VALID,80,VALID,0.784375,
2008-10-23, 03:02:04,VALID,1008.37,VALID,0,VALID,95.1465,VALID,0,VALID,23.6356,VALID,95,VALID,0.769922,
2008-10-23, 03:03:04,VALID,1008.37,VALID,0,VALID,95.1542,VALID,0,VALID,23.6161,VALID,93,VALID,0.682813,
2008-10-23, 03:04:04,VALID,1008.4,VALID,0,VALID,95.1542,VALID,0,VALID,23.5753,VALID,94,VALID,0.714453,
2008-10-23, 03:05:04,VALID,1008.4,VALID,0,VALID,95.1542,VALID,0,VALID,23.6161,VALID,98,VALID,0.966406,
2008-10-23, 03:06:04,VALID,1008.4,VALID,0,VALID,95.1694,VALID,0,VALID,23.5966,VALID,91,VALID,1.14883,
2008-10-23, 03:07:04,VALID,1008.39,VALID,0,VALID,95.1389,VALID,0,VALID,23.5966,VALID,78,VALID,1.00937,
2008-10-23, 03:08:04,VALID,1008.39,VALID,0,VALID,95.1542,VALID,0,VALID,23.5753,VALID,93,VALID,0.64375,
2008-10-23, 03:09:04,VALID,1008.4,VALID,0,VALID,95.177,VALID,0,VALID,23.6356,VALID,104,VALID,0.538672,
2008-10-23, 03:10:04,VALID,1008.43,VALID,0,VALID,95.1847,VALID,0,VALID,23.6356,VALID,130,VALID,1.00391,
2008-10-23, 03:11:04,VALID,1008.44,VALID,0,VALID,95.177,VALID,0,VALID,23.655,VALID,146,VALID,1.02148,
2008-10-23, 03:12:04,VALID,1008.49,VALID,0,VALID,95.1847,VALID,0,VALID,23.6161,VALID,138,VALID,1.13047,
2008-10-23, 03:13:04,VALID,1008.49,VALID,0,VALID,95.1923,VALID,0,VALID,23.6161,VALID,135,VALID,1.24141,
2008-10-23, 03:14:04,VALID,1008.53,VALID,0,VALID,95.1923,VALID,0,VALID,23.5966,VALID,131,VALID,0.974609,
2008-10-23, 03:15:04,VALID,1008.54,VALID,0,VALID,95.1923,VALID,0,VALID,23.6356,VALID,120,VALID,0.627734,
2008-10-23, 03:16:04,VALID,1008.53,VALID,0,VALID,95.1923,VALID,0,VALID,23.6161,VALID,117,VALID,1.15,
2008-10-23, 03:17:04,VALID,1008.53,VALID,0,VALID,95.1923,VALID,0,VALID,23.5558,VALID,143,VALID,0.726953,
2008-10-23, 03:18:04,VALID,1008.52,VALID,0,VALID,95.1923,VALID,0,VALID,23.5966,VALID,122,VALID,0.764063,
2008-10-23, 03:19:04,VALID,1008.54,VALID,0,VALID,95.2075,VALID,0,VALID,23.5966,VALID,108,VALID,0.908203,
2008-10-23, 03:20:04,VALID,1008.53,VALID,0,VALID,95.1923,VALID,0,VALID,23.5984,VALID,118,VALID,0.969922,
2008-10-23, 03:21:04,VALID,1008.53,VALID,0,VALID,95.1999,VALID,0,VALID,23.5576,VALID,100,VALID,1.43047,
2008-10-23, 03:22:04,VALID,1008.52,VALID,0,VALID,95.2304,VALID,0,VALID,23.5576,VALID,92,VALID,1.03477,
2008-10-23, 03:23:04,VALID,1008.52,VALID,0,VALID,95.2228,VALID,0,VALID,23.5771,VALID,62,VALID,0.636719,
2008-10-23, 03:24:04,VALID,1008.52,VALID,0,VALID,95.2457,VALID,0,VALID,23.5576,VALID,88,VALID,0.511328,
2008-10-23, 03:25:04,VALID,1008.5,VALID,0,VALID,95.2457,VALID,0,VALID,23.5771,VALID,92,VALID,0.647266,
2008-10-23, 03:26:04,VALID,1008.47,VALID,0,VALID,95.2533,VALID,0,VALID,23.5363,VALID,95,VALID,0.427344,
2008-10-23, 03:27:04,VALID,1008.48,VALID,0,VALID,95.2457,VALID,0,VALID,23.5771,VALID,86,VALID,0.767969,
2008-10-23, 03:28:04,VALID,1008.48,VALID,0,VALID,95.2914,VALID,0,VALID,23.6161,VALID,76,VALID,0.803516,
2008-10-23, 03:29:04,VALID,1008.5,VALID,0,VALID,95.2685,VALID,0,VALID,23.5966,VALID,65,VALID,0.65,
2008-10-23, 03:30:04,VALID,1008.53,VALID,0,VALID,95.2914,VALID,0,VALID,23.5753,VALID,90,VALID,1.26719,
2008-10-23, 03:31:04,VALID,1008.58,VALID,0,VALID,95.299,VALID,0,VALID,23.5771,VALID,83,VALID,0.666406,
2008-10-23, 03:32:04,VALID,1008.62,VALID,0,VALID,95.2914,VALID,0,VALID,23.5966,VALID,93,VALID,1.06445,
2008-10-23, 03:33:04,VALID,1008.63,VALID,0,VALID,95.2914,VALID,0,VALID,23.5771,VALID,75,VALID,1.27695,
2008-10-23, 03:34:04,VALID,1008.66,VALID,0,VALID,95.3143,VALID,0,VALID,23.5966,VALID,96,VALID,1.32539,
2008-10-23, 03:35:04,VALID,1008.66,VALID,0,VALID,95.3143,VALID,0,VALID,23.6179,VALID,91,VALID,1.32031,
2008-10-23, 03:36:04,VALID,1008.68,VALID,0,VALID,95.3372,VALID,0,VALID,23.5966,VALID,78,VALID,0.992969,
2008-10-23, 03:37:04,VALID,1008.68,VALID,0,VALID,95.3372,VALID,0,VALID,23.6161,VALID,98,VALID,1.42422,
2008-10-23, 03:38:04,VALID,1008.66,VALID,0,VALID,95.3143,VALID,0,VALID,23.5771,VALID,101,VALID,1.13711,
2008-10-23, 03:39:04,VALID,1008.67,VALID,0,VALID,95.3372,VALID,0,VALID,23.6161,VALID,104,VALID,1.27305,
2008-10-23, 03:40:04,VALID,1008.65,VALID,0,VALID,95.3372,VALID,0,VALID,23.6373,VALID,96,VALID,1.18242,
2008-10-23, 03:41:04,VALID,1008.62,VALID,0,VALID,95.3753,VALID,0,VALID,23.6161,VALID,91,VALID,1.17695,
2008-10-23, 03:42:04,VALID,1008.64,VALID,0,VALID,95.3677,VALID,0,VALID,23.6356,VALID,85,VALID,0.775781,
2008-10-23, 03:43:04,VALID,1008.61,VALID,0,VALID,95.3753,VALID,0,VALID,23.6356,VALID,122,VALID,0.853125,
2008-10-23, 03:44:04,VALID,1008.6,VALID,0,VALID,95.3677,VALID,0,VALID,23.6356,VALID,132,VALID,1.06875,